Tracking 31027 objects as of 19-Jul-2025
HD Live streaming from Space Station
objects crossing your sky now

STARLINK-11485

Track STARLINK-11485 now!
10-day predictions
STARLINK-11485 is classified as:


NORAD ID: 62229
Int'l Code: 2024-231M
Perigee: 365.5 km
Apogee: 367.8 km
Inclination: 53.2 °
Period: 91.7 minutes
Semi major axis: 6737 km
RCS: Unknown
Launch date: December 5, 2024
Source: United States (US)
Launch site: AIR FORCE WESTERN TEST RANGE (AFWTR)
Your satellite tracking list
Your tracking list is empty




NASA's NSSDC Master Catalog

Two Line Element Set (TLE):
1 62229U 24231M   25199.90072509  .00248277  00000-0  19875-2 0  9993
2 62229  53.1573 173.6587 0001764  97.8104 262.3114 15.69781908 36430
Source of the keplerian elements: AFSPC